Weather History for Wenatchee, WA

Change the Weather History Date:

Saturday, February 22, 2014

  Actual Average Record
Temperature  
Mean Temperature 33 °F 32 °F  
Max Temperature 38 °F 41 °F 63 °F (2002)
Min Temperature 27 °F 24 °F 18 °F (1969)
Degree Days  
Heating Degree Days 32 32  
Month to date heating degree days 860 751  
Since 1 July heating degree days 5093 5008  
Cooling Degree Days 0 0  
Month to date cooling degree days 0 0  
Year to date cooling degree days 0 0  
Moisture  
Dew Point 22 °F    
Average Humidity 0    
Maximum Humidity 0    
Minimum Humidity 0    
Precipitation  
Precipitation T in 0.05 in 0.24 in (1968)
Month to date precipitation 1.20 1.16  
Year to date precipitation 2.20 3.03  
Snow  
Snow T in 0.10 in - ()
Month to date snowfall 7.3 5.0  
Since 1 July snowfall 19.7 45.4  
Snow Depth 0.00 in    
Sea Level Pressure  
Sea Level Pressure 30.13 in    
Wind  
Wind Speed 3 mph (SE)    
Max Wind Speed 7 mph    
Max Gust Speed 0 mph    
Visibility 10 miles    
Events Snow    
T = Trace of Precipitation, MM = Missing Value Source: NWS Daily Summary

Daily Weather History Graph

Daily Weather History Graph

Search for Another Location

Airport:

Trip Planner

Search our weather history database for the weather conditions in past years. The results will help you decide how hot, cold, wet, or windy it might be!

Date:

Astronomy

Feb. 22, 2014 Rise Set
Actual Time 6:53 AM PST 5:35 PM PST
Civil Twilight 6:22 AM PST 6:06 PM PST
Nautical Twilight 5:47 AM PST 6:42 PM PST
Astronomical Twilight 5:11 AM PST 7:17 PM PST
Moon 1:04 AM PST (2/22) 10:39 AM PST (2/22)
Length of Visible Light 11h 43m
Length of Day
10h 41m
Waning Gibbous, 49% of the Moon is Illuminated
Feb 22
Waning Gibbous
Mar 1
New
Mar 8
First Quarter
Mar 16
Full
Mar 23
Last Quarter

Hourly Weather History & Observations

Time (PST) Temp. Windchill Dew Point Humidity Pressure Visibility Wind Dir Wind Speed Gust Speed Precip Events Conditions
12:55 AM 30.0 °F - 21.0 °F 69% 30.18 in 10.0 mi Calm Calm - N/A   Overcast
1:55 AM 30.9 °F - 21.0 °F 67% 30.18 in 10.0 mi Calm Calm - N/A   Overcast
2:55 AM 30.0 °F - 21.0 °F 69% 30.17 in 10.0 mi Calm Calm - N/A   Mostly Cloudy
3:55 AM 28.0 °F - 21.0 °F 75% 30.18 in 10.0 mi Calm Calm - N/A   Partly Cloudy
4:55 AM 27.0 °F 21.6 °F 19.0 °F 72% 30.18 in 10.0 mi West 4.6 mph - N/A   Clear
5:55 AM 26.1 °F 21.9 °F 18.0 °F 71% 30.18 in 10.0 mi NW 3.5 mph - N/A   Clear
6:55 AM 25.0 °F 19.3 °F 18.0 °F 75% 30.17 in 10.0 mi WNW 4.6 mph - N/A   Partly Cloudy
7:55 AM 27.0 °F 21.6 °F 19.0 °F 72% 30.18 in 10.0 mi WNW 4.6 mph - N/A   Overcast
8:55 AM 28.9 °F 23.9 °F 19.0 °F 67% 30.17 in 10.0 mi WNW 4.6 mph - N/A   Overcast
9:55 AM 28.9 °F 22.8 °F 19.0 °F 67% 30.18 in 10.0 mi West 5.8 mph - N/A   Overcast
10:55 AM 30.9 °F 27.5 °F 21.0 °F 67% 30.19 in 10.0 mi NW 3.5 mph - N/A   Overcast
11:55 AM 32.0 °F 28.7 °F 21.9 °F 66% 30.18 in 10.0 mi West 3.5 mph - N/A   Overcast
12:55 PM 34.0 °F - 23.0 °F 64% 30.15 in 10.0 mi Calm Calm - N/A   Overcast
1:55 PM 35.1 °F - 21.9 °F 59% 30.12 in 10.0 mi Calm Calm - N/A   Mostly Cloudy
2:47 PM 37.0 °F 31.6 °F 24.1 °F 59% 30.08 in 10.0 mi SSE 6.9 mph - N/A   Mostly Cloudy
2:55 PM 36.0 °F 32.1 °F 23.0 °F 59% 30.11 in 10.0 mi Variable 4.6 mph - N/A   Mostly Cloudy
3:02 PM 35.1 °F 30.1 °F 23.0 °F 61% 30.07 in 10.0 mi SSE 5.8 mph - N/A   Scattered Clouds
3:55 PM 35.1 °F 30.1 °F 23.0 °F 61% 30.11 in 10.0 mi SSE 5.8 mph - N/A   Overcast
4:55 PM 35.1 °F 30.1 °F 24.1 °F 64% 30.10 in 10.0 mi SE 5.8 mph - N/A   Overcast
5:55 PM 34.0 °F 29.8 °F 24.1 °F 67% 30.11 in 10.0 mi East 4.6 mph - N/A   Overcast
6:55 PM 32.0 °F 26.4 °F 24.1 °F 73% 30.11 in 10.0 mi East 5.8 mph - N/A   Mostly Cloudy
7:55 PM 32.0 °F 26.4 °F 24.1 °F 73% 30.10 in 10.0 mi East 5.8 mph - N/A   Overcast
8:55 PM 32.0 °F 26.4 °F 24.1 °F 73% 30.09 in 10.0 mi East 5.8 mph - N/A   Overcast
9:55 PM 32.0 °F 26.4 °F 25.0 °F 75% 30.09 in 10.0 mi East 5.8 mph - N/A   Overcast
10:55 PM 32.0 °F 26.4 °F 25.0 °F 75% 30.09 in 10.0 mi ESE 5.8 mph - N/A   Overcast
11:13 PM 32.0 °F 25.6 °F 26.1 °F 79% 30.05 in 6.0 mi ESE 6.9 mph - 0.00 in Snow Light Snow
11:55 PM 30.9 °F 24.3 °F 26.1 °F 82% 30.08 in 8.0 mi SE 6.9 mph - 0.00 in Snow Light Snow